Content
SEND FEEDBACK

Daily
Averages
Monthly
Summary
United States of America

ASATDAS, GUAM


Home > North America > United States > Guam
Elevation: 186 meters     Latitude: 13 35N     Longitude: 144 56E

WEATHER
 
SELECT A DAY
Number of Records: 209,044;   Date Range: 1/1/95 - 7/29/14
 
SHARE

PRINT THIS DATA

[ ← Previous Day ]
WEATHER ALMANAC - 14 SEPTEMBER, 2013
[ Next Day → ]
[ °F ]   °C
Weather ElementAverageHighLow
Temperature27.7 °C31 °C (3:44 pm)25 °C (5:54 am)
Dewpoint24.5 °C26 °C (3:44 pm)23 °C (1:09 pm)
Humidity83.2 %96 % (5:54 am)74 % (2:54 pm)
Barometer1009.1 hPa1011.2 hPa (9:24 am)1007.5 hPa (3:54 am)
Wind Speed6.9 km/h29.6 km/h (1:09 pm)
Weather ElementAverage
Visibility15.6 km
Wind DirectionSSE (141.7 °)

Weather ElementTotal
Precipitation42.67 mm
Cooling Degree Days9.7 (Base 18.3)
Growing Degree Days18 (Base 10)
Averaged from 29 records on 14 September, 2013
WEATHER CONDITIONS BREAKOUT
WIND DIRECTION BREAKOUT
WEATHER BY HOUR - 14 SEPTEMBER, 2013
[ °F ]   °C
Local TimeTemperatureDewpointHumidityBarometerVisibilityWind DirectionWind SpeedGust SpeedPrecipitationEventsConditions
1:54 AM26.1 °C24.4 °C90 %1008.5 hPa16.1 kmWSW (240°)5.6 km/hClear
2:54 AM25.6 °C24.4 °C93 %1007.8 hPa16.1 kmCalmClear
3:54 AM25.6 °C24.4 °C93 %1007.5 hPa16.1 kmCalmClear
4:54 AM26.1 °C24.4 °C90 %1007.5 hPa16.1 kmCalmClear
5:54 AM25 °C24.4 °C96 %1008.1 hPa16.1 kmCalmClear
6:54 AM26.7 °C25 °C90 %1009.1 hPa16.1 kmNE (50°)5.6 km/hClear
7:54 AM28.9 °C25.6 °C82 %1009.8 hPa16.1 kmWest (270°)5.6 km/hClear
8:54 AM28.9 °C25 °C79 %1010.5 hPa16.1 kmWNW (290°)9.3 km/hMostly Cloudy
9:24 AM26 °C24 °C89 %1011.2 hPa11.3 kmCalm13.72 mmRainLight Rain
9:34 AM26 °C24 °C89 %1011.2 hPa11.3 kmENE (70°)9.3 km/h14.48 mmRainLight Rain
9:54 AM26.7 °C24.4 °C87 %1010.5 hPa16.1 kmEast (100°)7.4 km/h14.48 mmPartly Cloudy
10:54 AM28.9 °C25 °C79 %1010.2 hPa16.1 kmCalmClear
11:54 AM29.4 °C25 °C77 %1009.8 hPa16.1 kmSouth (170°)7.4 km/hClear
12:54 PM29.4 °C25 °C77 %1009.1 hPa16.1 kmWest (260°)13 km/hMostly Cloudy
1:09 PM26 °C23 °C83 %1009.8 hPa16.1 kmWest (270°)29.6 km/h0 mmRain-ThunderstormLight Thunderstorms and Rain
1:24 PM27 °C24 °C84 %1009.5 hPa12.9 kmWest (280°)16.7 km/h0 mmRainLight Rain
1:54 PM28.3 °C23.9 °C77 %1008.5 hPa16.1 kmSW (220°)13 km/h0 mmScattered Clouds
2:54 PM30 °C25 °C74 %1007.8 hPa16.1 kmWest (260°)9.3 km/hPartly Cloudy
3:44 PM31 °C26 °C75 %1008.5 hPa16.1 kmVariable9.3 km/hMostly Cloudy
3:54 PM30.6 °C25.6 °C74 %1007.8 hPa16.1 kmWest (280°)9.3 km/hMostly Cloudy
4:08 PM29 °C25 °C79 %1008.5 hPa16.1 kmWest (270°)5.6 km/hScattered Clouds
4:54 PM29.4 °C25 °C77 %1007.5 hPa16.1 kmWNW (290°)7.4 km/hPartly Cloudy
5:54 PM28.3 °C23.9 °C77 %1008.1 hPa16.1 kmWNW (290°)7.4 km/hPartly Cloudy
6:54 PM27.8 °C23.3 °C76 %1008.5 hPa16.1 kmWest (280°)5.6 km/hPartly Cloudy
7:54 PM26.7 °C24.4 °C87 %1009.1 hPa16.1 kmCalmPartly Cloudy
8:54 PM27.2 °C23.9 °C82 %1010.2 hPa16.1 kmEast (90°)5.6 km/hPartly Cloudy
9:54 PM28.3 °C24.4 °C79 %1010.2 hPa16.1 kmENE (70°)9.3 km/hPartly Cloudy
10:54 PM27.8 °C25 °C85 %1010.2 hPa16.1 kmENE (60°)7.4 km/hPartly Cloudy
11:54 PM25 °C23.9 °C94 %1009.5 hPa16.1 kmCalmPartly Cloudy
Hourly data recorded from PGUM, located 0 kilometers away from Asatdas, Guam







STORIES FROM OUR PARTNERS